Regional Weather Roundup
Issued by NWS Green Bay, WI

Home | Current Version | Previous Version | Text Only | Print | Product List | Glossary On
Versions: 1 2 3 4 5 6 7 8 9 10 11 12 13 14 15 16 17 18 19 20 21 22 23 24 25 26 27 28 29 30 31 32 33 34 35 36 37 38 39 40 41 42 43 44 45 46 47 48 49 50
000
ASUS43 KGRB 301211
RWRGRB

NORTH-CENTRAL AND NORTHEAST WISCONSIN REGIONAL WEATHER ROUNDUP
NATIONAL WEATHER SERVICE GREEN BAY WI
700 AM CDT FRI SEP 30 2016

WIZ005-009-010>012-018-019-301300-
NORTH CENTRAL WISCONSIN

CITY           SKY/WX    TMP DP  RH WIND       PRES   REMARKS
IRONWOOD       FOG       49  49 100 NE5       30.45R VSB 1/2
MANITOWISH WTR CLOUDY    48  48 100 NE5       30.42S FOG
ARBOR VITAE    MOCLDY    49  48  97 NE6       30.41S FOG
EAGLE RIVER    FOG       45  45 100 N5        30.41S VSB 1/4
LAND O LAKES   FOG       49  49 100 N7        30.43S VSB 1/4
RHINELANDER    CLEAR     47  47 100 N3        30.40S
PHILLIPS       CLOUDY    46  46 100 NE5       30.40S FOG
ANTIGO         MOCLDY    50  49  97 NE9       30.36S
TOMAHAWK       CLEAR     45  44  97 N3        30.40S
MERRILL        PTCLDY    46  46 100 N3        30.38S
$$

WIZ013-073-301300-
NORTHEAST WISCONSIN

CITY           SKY/WX    TMP DP  RH WIND       PRES   REMARKS
IRON MOUNTAIN  PTCLDY    48  45  89 CALM      30.38S
MARINETTE      CLOUDY    57  54  89 NE10      30.34S
OCONTO         CLOUDY    56  54  90 NE9       30.31F
$$

WIZ017-030-035>037-045-301300-
CENTRAL WISCONSIN

CITY           SKY/WX    TMP DP  RH WIND       PRES   REMARKS
MEDFORD        CLEAR     47  47 100 N5        30.37S
WAUSAU         CLOUDY    51  48  89 N6        30.34S
MOSINEE        MOCLDY    50  48  93 N9        30.34F
MARSHFIELD     CLOUDY    52  47  83 N9        30.34S
WISC RAPIDS    CLOUDY    53  50  89 NE9       30.33F
STEVENS POINT  MOCLDY    48  48  99 CALM      30.33S
WAUPACA        CLOUDY    58  55  89 N6        30.31S
SHAWANO        CLOUDY    57  53  85 NE12      30.33S
CLINTONVILLE   CLOUDY    55  52  88 N7        30.32R
WAUTOMA        LGT RAIN  56  53  90 N7        30.30S FOG
$$

WIZ038-039-048-051-301300-
FOX VALLEY

CITY           SKY/WX    TMP DP  RH WIND       PRES   REMARKS
NWS GREEN BAY  CLOUDY    58  58 100 N9        30.29F
APPLETON       CLOUDY    55  55 100 N14G20    30.27F
OSHKOSH        CLOUDY    59  56  89 NE15      30.27S
FOND DU LAC    CLOUDY    59  57  93 N13       30.27S
$$

WIZ022-050-052-301300-
EAST CENTRAL WISCONSIN

CITY           SKY/WX    TMP DP  RH WIND       PRES   REMARKS
EPHRAIM        CLOUDY    60  56  87 NE7       30.32F
WASHINGTON ISL CLOUDY    60  56  87 NE8       30.33F
STURGEON BAY   CLOUDY    62  57  83 NE13      30.31F
MANITOWOC      CLOUDY    62  56  80 NE6       30.27S
SHEBOYGAN      CLOUDY    60  55  83 NE14      30.25F
$$

LMZ563-521-522-541>543-301300-
LAKESHORE

STATION/POSITION TIME  TEMP    WIND        PRES    VSBY  WAVE
                       AIR SEA DIR/SP/G                  HT/PER
                 (UTC) (F)     (DEG/KT/KT) (MB)    (MI)  (FT/S)
SHEBOYGAN LKSHOR 1200   61      40/ 17/ 19 1023.7F
KEWAUNEE LKSHORE 1100   62      40/  8/ 13 1025.3R
NORTHPORT PIER   1100   63      60/ 16/ 20 1027.1R
N MID LAKE BUOY  1150   63 65   70/ 17/ 21 1026.3F         4/ 5
SISTER BAY LKSHO 1138   62     110/  6/  9   N/A
CHAMBERS ISLAND  1100   62      20/ 14/ 17 1026.8R
MENOMINEE LKSHOR 1100   60     360/ 15/ 16 1026.0R
$$




USA.gov is the U.S. government's official web portal to all federal, state and local government web resources and services.